Weather History for KACJ - June, 2014

Change the Weather History Date:

Friday, June 27, 2014

  Actual Average (KABY) Record (KABY)
Temperature  
Mean Temperature 81 °F 82 °F  
Max Temperature 91 °F 92 °F 103 °F (1952)
Min Temperature 71 °F 72 °F 62 °F (1990)
Degree Days  
Heating Degree Days 0 0  
Month to date heating degree days 0  
Since 1 June heating degree days 0  
Since 1 July heating degree days 1838  
Cooling Degree Days 16 17  
Month to date cooling degree days 414  
Year to date cooling degree days 854  
Since 1 June cooling degree days 414  
Growing Degree Days 31 (Base 50)    
Moisture  
Dew Point 68 °F    
Average Humidity 67    
Maximum Humidity 94    
Minimum Humidity 40    
Precipitation  
Precipitation 0.00 in - 2.86 in (2010)
Sea Level Pressure  
Sea Level Pressure 30.09 in    
Wind  
Wind Speed 6 mph (WNW)    
Max Wind Speed 17 mph    
Max Gust Speed 23 mph    
Visibility 10 miles    
Events      
T = Trace of Precipitation, MM = Missing Value Source: NWS Daily Summary

Daily Weather History Graph

Daily Weather History Graph

Search for Another Location

Airport or City:

Trip Planner

Search our weather history database for the weather conditions in past years. The results will help you decide how hot, cold, wet, or windy it might be!

Date:

Astronomy

Jun. 27, 2014 Rise Set
Actual Time 6:32 AM EDT 8:47 PM EDT
Civil Twilight 6:04 AM EDT 9:15 PM EDT
Nautical Twilight 5:29 AM EDT 9:49 PM EDT
Astronomical Twilight 4:52 AM EDT 10:27 PM EDT
Moon 6:56 AM EDT (6/27) 8:57 PM EDT (6/27)
Length of Visible Light 15h 11m
Length of Day
14h 14m
New Moon, 0% of the Moon is Illuminated
Jun 27
New Moon
Jul 5
First Quarter
Jul 12
Full
Jul 18
Last Quarter
Jul 26
New

Hourly Weather History & Observations

Time (EDT) Temp. Heat Index Dew Point Humidity Pressure Visibility Wind Dir Wind Speed Gust Speed Precip Events Conditions
12:15 AM 73.4 °F - 68.0 °F 83% 30.07 in 10.0 mi Calm Calm - N/A   Clear
12:35 AM 75.2 °F - 68.0 °F 78% 30.08 in 10.0 mi West 4.6 mph - N/A   Clear
12:55 AM 77.0 °F - 68.0 °F 74% 30.08 in 10.0 mi West 4.6 mph - N/A   Clear
1:15 AM 73.4 °F - 68.0 °F 83% 30.08 in 10.0 mi Calm Calm - N/A   Clear
1:35 AM 75.2 °F - 68.0 °F 78% 30.08 in 10.0 mi West 3.5 mph - N/A   Clear
1:55 AM 73.4 °F - 68.0 °F 83% 30.08 in 10.0 mi WSW 3.5 mph - N/A   Scattered Clouds
2:15 AM 73.4 °F - 68.0 °F 83% 30.07 in 10.0 mi West 3.5 mph - N/A   Clear
2:35 AM 75.2 °F - 68.0 °F 78% 30.07 in 10.0 mi West 5.8 mph - N/A   Scattered Clouds
2:55 AM 73.4 °F - 68.0 °F 83% 30.06 in 10.0 mi WNW 8.1 mph - N/A   Scattered Clouds
3:15 AM 73.4 °F - 68.0 °F 83% 30.06 in 10.0 mi West 3.5 mph - N/A   Scattered Clouds
3:35 AM 73.4 °F - 69.8 °F 88% 30.06 in 10.0 mi West 3.5 mph - N/A   Scattered Clouds
3:55 AM 73.4 °F - 69.8 °F 88% 30.06 in 10.0 mi Calm Calm - N/A   Scattered Clouds
4:15 AM 73.4 °F - 69.8 °F 88% 30.06 in 10.0 mi West 4.6 mph - N/A   Scattered Clouds
4:35 AM 73.4 °F - 69.8 °F 88% 30.06 in 10.0 mi West 5.8 mph - N/A   Mostly Cloudy
4:55 AM 73.4 °F - 69.8 °F 88% 30.06 in 10.0 mi West 4.6 mph - N/A   Mostly Cloudy
5:15 AM 73.4 °F - 69.8 °F 88% 30.06 in 10.0 mi West 4.6 mph - N/A   Scattered Clouds
5:35 AM 73.4 °F - 69.8 °F 88% 30.06 in 10.0 mi West 4.6 mph - N/A   Clear
5:55 AM 71.6 °F - 69.8 °F 94% 30.07 in 10.0 mi WSW 4.6 mph - N/A   Clear
6:15 AM 71.6 °F - 69.8 °F 94% 30.06 in 10.0 mi WSW 3.5 mph - N/A   Clear
6:35 AM 71.6 °F - 69.8 °F 94% 30.07 in 10.0 mi WSW 3.5 mph - N/A   Clear
6:55 AM 71.6 °F - 69.8 °F 94% 30.07 in 10.0 mi Calm Calm - N/A   Clear
7:15 AM 71.6 °F - 69.8 °F 94% 30.08 in 10.0 mi WSW 3.5 mph - N/A   Clear
7:35 AM 73.4 °F - 71.6 °F 94% 30.09 in 10.0 mi West 8.1 mph - N/A   Clear
7:55 AM 73.4 °F - 71.6 °F 94% 30.09 in 10.0 mi West 8.1 mph - N/A   Clear
8:15 AM 73.4 °F - 71.6 °F 94% 30.10 in 10.0 mi West 8.1 mph - N/A   Clear
8:35 AM 73.4 °F - 71.6 °F 94% 30.10 in 10.0 mi WNW 6.9 mph - N/A   Scattered Clouds
8:55 AM 75.2 °F - 71.6 °F 89% 30.11 in 10.0 mi WNW 8.1 mph - N/A   Scattered Clouds
9:15 AM 77.0 °F - 71.6 °F 83% 30.12 in 10.0 mi West 9.2 mph - N/A   Scattered Clouds
9:35 AM 77.0 °F - 69.8 °F 78% 30.12 in 10.0 mi West 8.1 mph - N/A   Clear
9:55 AM 78.8 °F - 69.8 °F 74% 30.12 in 10.0 mi WNW 8.1 mph - N/A   Clear
10:15 AM 80.6 °F 83.9 °F 69.8 °F 70% 30.12 in 10.0 mi WNW 11.5 mph 16.1 mph N/A   Clear
10:35 AM 80.6 °F 83.9 °F 69.8 °F 70% 30.13 in 10.0 mi West 11.5 mph - N/A   Clear
10:55 AM 82.4 °F 86.3 °F 69.8 °F 66% 30.13 in 10.0 mi WNW 11.5 mph - N/A   Scattered Clouds
11:15 AM 82.4 °F 85.4 °F 68.0 °F 62% 30.13 in 10.0 mi NW 10.4 mph 17.3 mph N/A   Scattered Clouds
11:35 AM 84.2 °F 87.3 °F 68.0 °F 58% 30.13 in 10.0 mi NW 12.7 mph 17.3 mph N/A   Clear
11:55 AM 86.0 °F 89.4 °F 68.0 °F 55% 30.13 in 10.0 mi WNW 10.4 mph - N/A   Scattered Clouds
12:15 PM 86.0 °F 89.4 °F 68.0 °F 55% 30.13 in 10.0 mi NW 11.5 mph - N/A   Scattered Clouds
12:35 PM 87.8 °F 90.4 °F 66.2 °F 49% 30.12 in 10.0 mi WNW 16.1 mph 21.9 mph N/A   Scattered Clouds
12:55 PM 87.8 °F 89.4 °F 64.4 °F 46% 30.12 in 10.0 mi NW 17.3 mph 23.0 mph N/A   Scattered Clouds
1:15 PM 87.8 °F 90.4 °F 66.2 °F 49% 30.12 in 10.0 mi WNW 13.8 mph 23.0 mph N/A   Scattered Clouds
1:35 PM 87.8 °F 90.4 °F 66.2 °F 49% 30.11 in 10.0 mi NW 12.7 mph 21.9 mph N/A   Scattered Clouds
1:55 PM 89.6 °F 92.2 °F 66.2 °F 46% 30.11 in 10.0 mi West 13.8 mph 19.6 mph N/A   Scattered Clouds
2:15 PM 87.8 °F 90.4 °F 66.2 °F 49% 30.10 in 10.0 mi NW 10.4 mph - N/A   Scattered Clouds
2:35 PM 89.6 °F 90.1 °F 62.6 °F 40% 30.10 in 10.0 mi WNW 13.8 mph 21.9 mph N/A   Scattered Clouds
2:55 PM 89.6 °F 91.1 °F 64.4 °F 43% 30.09 in 10.0 mi NW 11.5 mph 16.1 mph N/A   Scattered Clouds
3:15 PM 89.6 °F 91.1 °F 64.4 °F 43% 30.09 in 10.0 mi WNW 13.8 mph 19.6 mph N/A   Mostly Cloudy
3:35 PM 89.6 °F 91.1 °F 64.4 °F 43% 30.08 in 10.0 mi WNW 12.7 mph 18.4 mph N/A   Scattered Clouds
3:55 PM 89.6 °F 91.1 °F 64.4 °F 43% 30.08 in 10.0 mi WNW 10.4 mph 18.4 mph N/A   Scattered Clouds
4:15 PM 91.4 °F 93.2 °F 64.4 °F 41% 30.07 in 10.0 mi WNW 9.2 mph 21.9 mph N/A   Scattered Clouds
4:35 PM 89.6 °F 91.1 °F 64.4 °F 43% 30.06 in 10.0 mi WNW 12.7 mph 17.3 mph N/A   Clear
4:55 PM 89.6 °F 91.1 °F 64.4 °F 43% 30.05 in 10.0 mi WNW 11.5 mph 17.3 mph N/A   Clear
5:15 PM 89.6 °F 91.1 °F 64.4 °F 43% 30.05 in 10.0 mi WNW 9.2 mph - N/A   Clear
5:35 PM 89.6 °F 92.2 °F 66.2 °F 46% 30.05 in 10.0 mi WNW 6.9 mph - N/A   Clear
5:55 PM 89.6 °F 91.1 °F 64.4 °F 43% 30.05 in 10.0 mi WNW 8.1 mph - N/A   Clear
6:15 PM 89.6 °F 91.1 °F 64.4 °F 43% 30.05 in 10.0 mi WNW 8.1 mph - N/A   Clear
6:35 PM 89.6 °F 93.4 °F 68.0 °F 49% 30.04 in 10.0 mi WNW 5.8 mph - N/A   Clear
6:55 PM 89.6 °F 93.4 °F 68.0 °F 49% 30.05 in 10.0 mi NW 5.8 mph - N/A   Clear
7:15 PM 87.8 °F 91.4 °F 68.0 °F 52% 30.05 in 10.0 mi NW 4.6 mph - N/A   Clear
7:35 PM 87.8 °F 91.4 °F 68.0 °F 52% 30.05 in 10.0 mi WNW 6.9 mph - N/A   Clear
7:55 PM 87.8 °F 91.4 °F 68.0 °F 52% 30.05 in 10.0 mi NW 4.6 mph - N/A   Clear
8:15 PM 86.0 °F 89.4 °F 68.0 °F 55% 30.06 in 10.0 mi WNW 4.6 mph - N/A   Clear
8:35 PM 86.0 °F 89.4 °F 68.0 °F 55% 30.06 in 10.0 mi NW 3.5 mph - N/A   Clear
8:55 PM 86.0 °F 89.4 °F 68.0 °F 55% 30.06 in 10.0 mi WNW 3.5 mph - N/A   Clear
9:15 PM 84.2 °F 87.3 °F 68.0 °F 58% 30.07 in 10.0 mi WNW 3.5 mph - N/A   Clear
9:35 PM 82.4 °F 85.4 °F 68.0 °F 62% 30.08 in 10.0 mi Calm Calm - N/A   Clear
9:55 PM 82.4 °F 85.4 °F 68.0 °F 62% 30.09 in 10.0 mi NW 3.5 mph - N/A   Clear
10:15 PM 82.4 °F 85.4 °F 68.0 °F 62% 30.10 in 10.0 mi Calm Calm - N/A   Clear
10:35 PM 78.8 °F - 68.0 °F 69% 30.12 in 10.0 mi West 3.5 mph - N/A   Clear
10:55 PM 78.8 °F - 69.8 °F 74% 30.13 in 10.0 mi Calm Calm - N/A   Clear
11:15 PM 78.8 °F - 69.8 °F 74% 30.13 in 10.0 mi West 3.5 mph - N/A   Clear
11:35 PM 78.8 °F - 69.8 °F 74% 30.14 in 10.0 mi WNW 5.8 mph - N/A   Clear
11:55 PM 78.8 °F - 69.8 °F 74% 30.14 in 10.0 mi WNW 5.8 mph - N/A   Clear